Theta_e
328 326 324 323 323 321 320 320 319 314 313 314 314 313 313 312 311 310 309 309 309 308 306 304 297 295 295 294 294 293 293 293 292 292 293 292 296 297
329 326 324 324 323 323 320 320 320 320 316 317 316 315 313 312 311 309 308 308 308 307 307 305 301 296 294 294 293 293 292 292 292 292 291 292 293 296
329 328 327 325 323 322 321 320 319 319 317 316 316 313 312 312 310 309 308 307 307 306 305 305 303 297 294 293 293 292 292 291 291 291 290 290 293 293
331 330 328 326 325 324 322 321 319 318 318 316 314 313 312 310 310 309 308 307 307 306 304 304 303 300 295 293 292 292 291 291 290 290 290 290 292 293
332 330 330 327 327 325 323 321 321 319 316 315 314 312 309 308 307 307 307 308 306 305 304 302 301 300 297 294 292 291 291 290 289 289 289 289 290 290
331 331 331 329 328 327 324 324 321 319 317 315 314 310 308 306 306 306 306 305 305 304 301 300 299 299 297 296 293 291 291 290 289 289 289 289 288 288
331 331 331 330 330 328 326 325 322 319 316 311 308 307 305 305 306 306 305 303 302 302 300 298 298 298 297 295 293 291 290 290 288 288 288 288 288 287
331 332 331 331 329 329 327 326 325 323 316 311 309 309 310 310 307 306 303 300 298 299 300 298 298 297 295 296 293 291 291 290 288 288 287 287 287 287
331 330 329 329 329 327 324 319 318 318 316 317 315 312 310 309 308 302 300 301 299 298 298 298 297 296 295 295 294 292 293 289 288 287 287 287 286 286
328 328 327 327 327 323 321 318 315 315 314 313 312 312 312 311 308 308 304 299 298 297 297 295 295 294 294 293 293 293 292 288 287 287 287 286 285 285
325 324 324 323 323 321 319 318 315 313 311 309 308 308 307 307 307 302 298 297 296 295 295 295 293 293 292 292 291 291 289 287 286 288 286 285 284 284
322 320 320 320 320 319 318 316 314 313 311 307 306 305 304 303 303 302 301 297 296 293 293 293 293 293 290 290 290 290 290 290 290 288 283 283 283 284
318 318 317 317 316 314 313 312 312 312 310 307 305 303 301 301 299 298 298 299 299 297 296 294 293 292 292 290 289 289 290 289 287 284 282 282 282 283
315 314 313 312 311 309 309 308 307 307 306 304 303 301 301 300 298 297 297 297 298 299 299 296 295 294 292 291 290 289 289 289 288 286 283 282 282 283
310 310 308 308 306 306 305 304 303 303 302 302 302 300 299 300 298 297 297 297 297 297 296 296 296 294 293 294 293 294 290 289 288 287 283 283 283 284
306 306 305 304 303 301 300 300 300 300 301 301 300 299 299 298 298 298 297 296 295 294 294 294 294 294 293 292 292 293 292 291 290 287 284 283 283 284
305 303 303 302 300 300 300 300 299 299 299 299 299 299 298 298 297 297 296 296 295 294 293 292 292 292 292 292 291 291 291 291 290 289 285 284 284 284
303 302 301 301 301 300 300 299 299 299 299 299 298 298 298 298 298 297 297 296 296 295 293 293 292 291 290 289 290 291 290 289 289 288 287 286 285 285
303 301 301 301 301 300 300 300 300 300 300 299 299 299 298 298 298 298 297 295 294 295 294 293 292 291 289 289 290 288 289 288 288 287 287 287 286 286
302 301 301 300 300 299 299 299 298 299 299 298 298 298 298 298 297 297 296 296 295 294 293 293 292 292 292 293 290 290 288 288 287 287 287 286 285 285
300 300 300 300 299 298 298 297 297 297 297 296 297 297 296 296 297 296 296 296 295 293 292 293 295 293 291 290 288 288 289 287 287 287 287 286 284 283
300 300 299 299 299 299 298 298 297 296 296 296 295 296 296 296 296 296 295 295 294 293 292 291 291 290 289 288 288 287 287 287 286 286 286 286 285 284
298 298 298 297 297 296 296 295 295 295 295 294 294 294 294 294 294 293 292 292 291 290 289 289 289 288 288 288 287 286 286 287 286 285 285 284 285 284
Wind_Speed
61 61 61 52 52 51 42 43 40 31 44 44 45 57 52 49 48 46 41 36 37 38 35 34 29 26 23 22 20 19 19 18 16 14 14 13 14 13
61 62 63 59 50 48 47 47 46 45 38 48 48 46 57 52 49 46 45 39 35 39 39 37 33 29 26 24 23 21 21 18 18 17 16 16 15 15
60 62 63 64 61 52 51 51 50 50 45 39 45 49 47 57 55 50 47 44 40 39 42 41 36 32 30 28 27 23 21 20 22 20 19 18 16 15
57 60 62 62 62 61 58 58 59 53 55 49 48 51 53 57 58 60 55 49 45 42 44 44 39 35 35 33 28 26 23 24 24 23 21 19 18 18
57 58 58 60 62 62 62 61 62 59 55 50 49 50 52 54 54 51 50 48 46 45 45 48 43 39 39 35 30 28 28 26 28 25 23 21 22 20
56 56 55 59 62 61 64 63 63 63 61 58 56 50 53 50 52 50 48 51 47 44 45 49 46 42 40 39 35 34 30 28 29 27 25 23 22 23
52 55 54 57 55 55 59 60 63 66 61 49 41 42 47 54 60 56 56 54 49 51 49 49 47 45 44 41 36 34 33 30 30 28 26 26 24 24
56 54 52 52 56 55 56 57 58 59 61 53 52 55 59 60 56 60 60 52 49 51 52 52 51 50 47 44 41 38 35 32 31 30 29 29 26 25
52 56 56 55 54 56 56 57 57 58 57 56 58 62 59 56 56 55 55 62 54 52 53 52 51 50 49 46 42 39 37 35 34 33 31 30 29 28
52 51 52 50 51 50 47 49 54 55 54 54 53 54 55 52 50 55 61 58 50 45 48 44 47 48 46 43 40 40 37 38 36 33 32 32 31 30
47 47 44 45 45 42 40 40 47 53 50 48 50 51 48 47 47 56 52 56 48 39 42 41 43 42 36 34 32 31 32 35 34 32 33 33 32 32
30 37 39 39 37 35 34 35 39 48 49 48 45 45 42 36 42 51 56 55 42 31 41 42 37 39 30 32 31 29 29 30 31 30 33 32 32 32
27 27 29 28 26 25 25 29 31 31 40 46 43 41 36 31 33 44 51 54 50 43 42 44 40 39 33 31 36 33 31 29 26 28 30 31 31 32
20 20 20 19 18 19 19 19 21 26 34 38 38 36 34 29 30 35 44 46 44 40 37 38 41 40 41 30 29 37 35 32 29 30 33 32 31 31
16 15 15 15 15 15 13 13 15 19 27 31 32 31 27 25 25 28 33 34 34 33 29 24 28 36 40 36 35 30 34 35 35 34 37 37 35 32
18 19 19 18 16 15 14 13 13 18 22 27 26 25 25 25 28 31 33 32 30 29 27 22 22 27 33 36 35 31 28 26 29 36 38 37 36 35
22 22 23 22 20 18 15 14 15 17 19 22 24 26 27 28 29 31 32 32 29 28 27 23 20 21 23 29 33 31 29 28 29 28 37 37 37 36
21 24 25 25 22 20 18 18 17 16 16 16 19 21 24 25 25 26 27 28 28 28 28 27 26 27 26 26 26 28 29 28 29 30 31 34 35 35
20 22 21 19 19 17 17 16 17 16 16 16 16 18 20 21 23 25 26 26 27 26 26 27 28 30 33 34 30 31 30 28 29 31 32 33 35 35
16 18 19 19 17 17 17 17 16 18 18 18 17 17 19 19 20 23 25 24 24 25 26 27 30 33 33 33 32 32 34 32 32 32 34 31 32 31
17 18 16 15 15 14 13 13 14 17 18 17 17 18 19 19 20 20 22 23 24 25 27 28 25 23 27 28 26 29 30 37 35 32 34 34 35 34
17 15 15 16 16 15 15 15 15 16 16 17 18 19 19 20 21 21 22 23 25 25 25 25 24 25 26 28 31 33 30 32 35 32 30 30 35 37
17 17 17 16 16 16 17 18 19 19 20 21 21 21 21 21 22 22 22 23 23 23 23 24 26 25 24 26 29 29 30 29 38 34 33 33 30 30
Wind_Direction
230 228 227 232 233 226 230 231 219 202 211 224 220 222 223 228 225 228 231 233 229 231 230 226 221 224 218 214 211 206 208 209 212 213 210 206 188 179
233 230 228 228 230 231 223 229 229 234 222 236 232 229 223 224 224 222 227 224 232 237 233 230 226 222 222 217 216 209 208 210 216 216 216 204 202 182
235 234 235 233 230 229 228 228 232 233 230 232 231 222 222 222 222 221 225 225 225 232 234 230 228 226 223 221 221 215 209 214 219 219 219 213 205 189
241 240 238 238 238 236 231 230 231 231 231 229 224 221 221 223 223 216 218 225 226 230 231 227 228 227 228 224 224 219 216 219 219 222 222 218 204 195
244 242 243 241 241 240 237 231 232 233 230 229 231 226 217 215 209 215 219 225 226 227 224 224 224 226 230 227 226 222 224 221 223 223 224 223 212 217
245 247 247 244 244 243 240 240 235 233 232 229 234 224 211 206 214 215 221 225 223 220 223 219 219 225 228 230 228 225 228 225 223 226 227 227 221 226
248 248 249 249 251 250 248 247 241 237 230 218 213 217 207 209 214 220 222 216 216 223 215 221 215 219 224 233 228 226 229 226 223 226 227 231 226 230
246 247 251 253 253 254 254 255 254 248 231 219 220 225 231 228 221 221 214 206 205 215 221 219 214 218 223 229 224 227 226 227 223 226 226 230 230 231
252 249 248 250 252 251 249 241 244 246 243 244 238 236 234 235 229 212 207 215 207 209 212 217 215 218 226 229 227 227 230 228 224 225 227 230 231 232
248 250 250 254 255 254 251 242 236 240 241 238 235 239 244 245 236 238 230 214 209 212 212 208 213 219 224 231 232 232 226 230 225 226 229 230 230 232
249 252 254 255 257 257 253 252 243 237 238 235 233 238 241 240 241 220 208 206 200 207 210 210 211 215 221 225 226 223 225 232 229 226 231 229 230 230
253 254 255 254 256 255 253 247 241 237 235 227 226 229 231 232 233 235 230 208 198 195 205 205 209 207 200 216 223 224 224 230 232 229 224 223 225 228
249 248 248 248 247 247 244 248 246 246 237 230 223 219 221 222 229 228 230 225 220 212 214 209 207 206 205 207 214 223 228 229 226 225 221 219 222 231
237 240 240 237 233 227 227 228 236 238 233 220 211 214 222 222 218 219 222 224 228 237 230 223 215 217 209 206 205 218 226 229 231 229 221 221 224 229
212 215 216 206 196 187 184 187 204 222 223 213 210 215 215 207 204 207 216 222 226 231 234 232 232 219 218 222 219 220 217 226 229 228 222 222 223 227
177 173 175 169 165 160 162 174 193 210 211 213 211 196 197 197 197 200 203 207 212 216 222 225 221 224 223 226 228 226 226 217 233 229 225 226 227 230
154 150 148 148 153 157 155 155 170 182 200 201 192 186 186 189 191 195 201 201 206 210 207 208 212 221 228 230 227 231 232 237 240 235 224 226 231 233
158 155 156 150 151 157 164 174 183 185 189 193 187 189 191 189 190 195 200 204 208 211 212 211 206 207 217 225 231 235 235 236 237 231 228 231 235 237
163 164 160 153 160 164 170 176 176 174 186 191 191 190 199 201 196 197 203 205 209 213 216 218 215 212 211 217 223 229 233 232 230 230 231 231 233 239
164 162 161 156 165 174 180 184 183 183 186 190 189 189 193 199 205 209 208 211 212 216 219 222 223 224 226 233 230 231 231 233 231 232 229 230 234 241
168 166 159 156 167 172 178 181 190 196 197 200 201 202 205 211 211 213 213 216 220 221 223 228 233 238 239 239 234 236 235 234 237 237 231 225 225 230
169 172 172 180 186 193 198 201 204 205 206 208 209 209 210 212 215 216 218 222 223 228 235 241 235 236 235 233 235 236 235 228 229 232 238 239 228 227
179 184 187 191 198 205 211 214 218 221 218 216 216 219 221 222 224 225 226 229 229 229 228 229 229 227 234 233 231 228 229 224 218 215 219 232 238 244